Latest Weather Observations for Canberra

IDN60901

Issued at 10:55 pm EST Thursday 24 April 2014 (issued every 10 minutes, with the page automatically refreshed every 10 minutes)

About weather observations | Map of Canberra area stations | Latest observations for Canberra area | Other Formats
Station Details ID: 070351 Name: CANBERRA AIRPORT Lat: -35.31 Lon: 149.20 Height: 577.05 m
Data from the previous 72 hours. | See also: Recent months at Canberra
Date/Time
EST
Tmp

°C
App
Tmp
°C
Dew
Point
°C
Rel
Hum
%
Delta-T

°C
Wind Press
QNH
hPa
Press
MSL
hPa
Rain
since
9 am
mm
Dir
 
Spd
km/h
Gust
km/h
Spd
kts
Gust
kts
24/10:30pm 5.9 4.4 3.2 83 1.2 CALM 0 0 0 0 1020.1 - 0.0
24/10:00pm 5.8 3.1 2.6 80 1.4 N 6 9 3 5 1019.9 - 0.0
24/09:30pm 5.4 2.1 2.6 82 1.2 SSE 9 17 5 9 1019.7 - 0.0
24/09:00pm 6.9 4.2 3.9 81 1.3 SSW 7 9 4 5 1019.1 1018.5 0.0
24/08:00pm 8.3 5.3 3.9 74 2.0 E 9 11 5 6 1018.5 - 0.0
24/07:30pm 9.0 5.6 3.8 70 2.3 SE 11 15 6 8 1018.1 - 0.0
24/07:11pm 7.5 5.4 1.4 65 2.6 NNE 2 7 1 4 1018.0 - 0.0
24/07:00pm 12.9 9.9 4.1 55 4.1 NNE 9 11 5 6 1017.8 - 0.0
24/06:30pm 14.3 11.2 3.5 48 5.1 N 9 13 5 7 1017.1 - 0.0
24/06:00pm 14.0 10.4 2.9 47 5.1 WNW 11 15 6 8 1016.6 1015.9 0.0
24/05:30pm 14.0 9.8 3.8 50 4.8 WNW 15 19 8 10 1016.1 - 0.0
24/05:00pm 16.9 12.0 3.9 42 6.3 WNW 19 24 10 13 1015.8 - 0.0
24/04:30pm 18.5 13.3 3.6 37 7.2 WNW 20 30 11 16 1015.4 - 0.0
24/04:00pm 19.3 13.3 3.1 34 7.8 WNW 24 32 13 17 1015.1 - 0.0
24/03:30pm 19.9 13.3 2.3 31 8.4 WNW 26 37 14 20 1014.8 - 0.0
24/03:00pm 20.2 13.5 3.4 33 8.2 WNW 28 35 15 19 1014.5 1013.8 0.0
24/02:30pm 20.3 14.2 4.8 36 7.8 WNW 26 33 14 18 1014.4 - 0.0
24/02:00pm 20.4 15.8 8.1 45 6.6 WNW 22 30 12 16 1014.4 - 0.0
24/01:30pm 20.9 15.9 9.5 48 6.3 W 26 37 14 20 1014.4 - 0.0
24/01:00pm 20.3 14.9 9.5 50 5.9 WNW 28 39 15 21 1014.4 - 0.0
24/12:30pm 20.3 14.6 9.8 51 5.8 WNW 30 39 16 21 1014.7 - 0.0
24/12:00pm 20.1 14.5 10.2 53 5.5 W 30 37 16 20 1014.9 1014.2 0.0
24/11:30am 20.3 16.1 11.2 56 5.1 W 24 35 13 19 1015.1 - 0.0
24/11:00am 19.7 16.3 11.2 58 4.8 NW 20 28 11 15 1015.2 - 0.0
24/10:30am 18.8 15.6 11.1 61 4.3 NNW 19 28 10 15 1015.2 - 0.0
24/10:00am 18.1 15.0 10.2 60 4.3 NW 17 24 9 13 1015.3 - 0.0
24/09:30am 17.4 13.7 10.1 62 4.0 NW 20 26 11 14 1015.1 - 0.0
24/09:00am 16.1 14.4 10.0 67 3.3 NW 9 11 5 6 1015.3 1014.6 0.0
24/08:30am 13.3 12.0 11.2 87 1.1 NNW 9 9 5 5 1015.3 - 0.0
24/08:00am 11.2 11.2 9.9 92 0.7 CALM 0 0 0 0 1015.1 - 0.0
24/07:30am 9.6 9.5 9.5 99 0.1 CALM 0 0 0 0 1014.8 - 0.0
24/07:00am 7.2 6.5 6.8 97 0.2 CALM 0 0 0 0 1014.5 - 0.0
24/06:30am 7.1 6.3 6.7 97 0.2 CALM 0 0 0 0 1014.4 - 0.0
24/06:00am 6.9 6.1 6.3 96 0.3 CALM 0 0 0 0 1014.1 1013.3 0.0
24/05:30am 7.3 5.8 6.9 97 0.2 S 4 9 2 5 1014.0 - 0.0
24/05:00am 7.4 5.6 7.0 97 0.2 SSE 6 7 3 4 1014.1 - 0.0
24/04:30am 7.6 5.7 6.9 95 0.3 WNW 6 7 3 4 1014.1 - 0.0
24/04:00am 8.3 7.8 7.9 97 0.2 CALM 0 0 0 0 1014.2 - 0.0
24/03:30am 7.5 6.4 6.9 96 0.3 S 2 7 1 4 1014.2 - 0.0
24/03:00am 7.9 6.0 7.5 97 0.2 S 7 9 4 5 1014.4 1013.7 0.0
24/02:30am 7.5 6.7 6.4 93 0.5 CALM 0 0 0 0 1014.6 - 0.0
24/02:00am 8.1 6.3 7.3 95 0.4 S 6 7 3 4 1014.8 - 0.0
24/01:30am 8.5 6.9 8.1 97 0.2 S 6 6 3 3 1015.1 - 0.0
24/01:00am 8.1 7.1 7.3 95 0.4 ESE 2 7 1 4 1015.2 - 0.0
24/12:30am 8.5 6.9 8.1 97 0.2 SE 6 7 3 4 1015.3 - 0.0
24/12:00am 8.6 7.3 7.7 94 0.4 ESE 4 7 2 4 1015.4 1014.7 0.0
 
Date/Time
EST
Tmp

°C
App
Tmp
°C
Dew
Point
°C
Rel
Hum
%
Delta-T

°C
Wind Press
QNH
hPa
Press
MSL
hPa
Rain
since
9 am
mm
Dir
 
Spd
km/h
Gust
km/h
Spd
kts
Gust
kts
23/11:30pm 8.6 6.7 6.9 89 0.8 SW 6 7 3 4 1015.6 - 0.0
23/11:00pm 10.3 8.8 9.1 92 0.6 NNW 7 9 4 5 1015.8 - 0.0
23/10:30pm 10.2 9.1 8.5 89 0.9 ESE 4 9 2 5 1016.0 - 0.0
23/10:00pm 10.5 10.3 9.1 91 0.7 CALM 0 0 0 0 1016.2 - 0.0
23/09:30pm 10.9 9.6 9.2 89 0.9 E 6 7 3 4 1016.1 - 0.0
23/09:00pm 11.3 9.9 9.6 89 0.9 E 7 9 4 5 1016.1 1015.4 0.0
23/08:30pm 10.5 8.9 8.6 88 1.0 SE 7 9 4 5 1016.3 - 0.0
23/08:00pm 11.8 10.6 9.4 85 1.2 SE 6 7 3 4 1016.2 - 0.0
23/07:30pm 12.5 11.1 9.7 83 1.5 ENE 7 9 4 5 1016.2 - 0.0
23/07:00pm 14.2 13.1 10.6 79 1.9 NE 7 9 4 5 1016.3 - 0.0
23/06:30pm 13.5 12.0 9.2 75 2.3 NNE 7 9 4 5 1016.1 - 0.0
23/06:00pm 16.0 14.3 9.9 67 3.3 N 9 11 5 6 1016.0 1015.3 0.0
23/05:30pm 16.3 14.6 9.7 65 3.5 NW 9 13 5 7 1015.8 - 0.0
23/05:00pm 17.6 14.8 10.0 61 4.1 NW 15 19 8 10 1015.8 - 0.0
23/04:30pm 19.1 15.2 9.6 54 5.2 NW 20 26 11 14 1015.7 - 0.0
23/04:00pm 20.6 16.9 9.5 49 6.1 NW 19 26 10 14 1015.6 - 0.0
23/03:30pm 20.0 16.8 10.1 53 5.5 N 17 17 9 9 1015.7 - 0.0
23/03:00pm 19.5 15.7 9.1 51 5.6 NNW 19 24 10 13 1016.0 1015.3 0.0
23/02:30pm 18.9 15.6 9.4 54 5.2 NW 17 24 9 13 1016.1 - 0.0
23/02:00pm 19.3 16.4 9.5 53 5.3 NNW 15 20 8 11 1016.1 - 0.0
23/01:30pm 19.2 17.9 9.9 55 5.1 NW 7 17 4 9 1016.5 - 0.0
23/01:00pm 19.4 18.4 10.9 58 4.8 W 7 13 4 7 1016.9 - 0.0
23/12:30pm 19.8 18.4 11.0 57 4.9 W 9 13 5 7 1017.7 - 0.0
23/12:00pm 18.2 17.3 10.6 61 4.2 WSW 6 13 3 7 1018.1 1017.4 0.0
23/11:30am 17.4 15.9 10.5 64 3.8 W 9 15 5 8 1018.9 - 0.0
23/11:00am 17.6 15.8 9.5 59 4.4 W 9 13 5 7 1019.5 - 0.0
23/10:30am 17.0 15.2 9.4 61 4.1 N 9 11 5 6 1019.6 - 0.0
23/10:00am 15.5 14.5 10.3 71 2.8 N 6 9 3 5 1019.7 - 0.0
23/09:30am 13.4 12.1 9.8 79 1.9 NE 7 9 4 5 1020.2 - 0.0
23/09:00am 11.3 10.0 9.2 87 1.1 WSW 6 11 3 6 1020.5 1019.9 0.0
23/08:30am 10.4 8.5 9.0 91 0.7 NW 9 9 5 5 1020.1 - 0.0
23/08:00am 9.8 9.6 9.2 96 0.3 CALM 0 4 0 2 1019.6 - 0.0
23/07:30am 7.9 6.6 7.8 99 0.0 SSE 4 9 2 5 1020.1 - 0.0
23/07:00am 6.8 5.6 6.5 98 0.1 ESE 2 6 1 3 1019.6 - 0.0
23/06:30am 6.5 5.5 5.8 95 0.3 CALM 0 4 0 2 1019.3 - 0.0
23/06:00am 7.6 5.2 7.0 96 0.3 N 9 11 5 6 1018.8 1018.2 0.0
23/05:30am 8.0 7.4 7.6 97 0.2 CALM 0 0 0 0 1018.7 - 0.0
23/05:00am 7.2 5.1 6.5 95 0.3 S 7 9 4 5 1018.8 - 0.0
23/04:30am 8.1 6.8 7.5 96 0.3 WNW 4 7 2 4 1018.5 - 0.0
23/04:00am 8.3 7.4 7.9 97 0.2 NNE 2 7 1 4 1018.2 - 0.0
23/03:30am 7.7 5.9 7.1 96 0.3 N 6 7 3 4 1018.3 - 0.0
23/03:00am 7.8 6.4 7.4 97 0.2 ENE 4 7 2 4 1018.3 1017.6 0.0
23/02:30am 7.3 6.6 6.9 97 0.2 CALM 0 0 0 0 1018.6 - 0.0
23/02:00am 6.9 4.9 6.3 96 0.3 NNW 6 7 3 4 1018.5 - 0.0
23/01:30am 7.2 6.4 6.6 96 0.3 CALM 0 0 0 0 1018.6 - 0.0
23/01:00am 6.7 5.8 6.0 95 0.3 CALM 0 2 0 1 1018.8 - 0.0
23/12:30am 6.9 6.0 6.0 94 0.4 CALM 0 6 0 3 1019.0 - 0.0
23/12:00am 7.1 5.9 6.4 95 0.3 ENE 2 9 1 5 1019.1 1018.5 0.0
 
Date/Time
EST
Tmp

°C
App
Tmp
°C
Dew
Point
°C
Rel
Hum
%
Delta-T

°C
Wind Press
QNH
hPa
Press
MSL
hPa
Rain
since
9 am
mm
Dir
 
Spd
km/h
Gust
km/h
Spd
kts
Gust
kts
22/11:30pm 6.8 5.9 5.9 94 0.4 CALM 0 7 0 4 1019.1 - 0.0
22/11:00pm 7.3 6.0 6.2 93 0.5 ESE 2 7 1 4 1019.3 - 0.0
22/10:30pm 7.0 4.5 6.4 96 0.3 SE 9 11 5 6 1019.3 - 0.0
22/10:00pm 7.4 5.3 6.7 95 0.3 SE 7 9 4 5 1019.3 - 0.0
22/09:30pm 7.6 6.7 6.2 91 0.7 CALM 0 0 0 0 1019.1 - 0.0
22/09:00pm 8.1 6.4 5.9 86 1.0 NNE 4 7 2 4 1018.9 1018.3 0.0
22/08:30pm 8.9 8.3 7.4 90 0.7 CALM 0 0 0 0 1018.9 - 0.0
22/08:00pm 10.5 7.9 7.7 83 1.4 NE 11 11 6 6 1018.5 - 0.0
22/07:30pm 11.4 9.5 7.5 77 1.9 ENE 7 11 4 6 1018.7 - 0.0
22/07:00pm 11.3 9.8 6.8 74 2.2 N 4 9 2 5 1018.6 - 0.0
22/06:30pm 12.9 10.2 7.4 69 2.8 NNE 11 15 6 8 1018.3 - 0.0
22/06:00pm 13.8 10.8 7.8 67 3.1 N 13 17 7 9 1017.8 1017.1 0.0
22/05:30pm 14.5 11.5 7.5 63 3.6 NNW 13 19 7 10 1017.6 - 0.0
22/05:00pm 15.7 11.9 7.5 58 4.2 N 17 20 9 11 1017.1 - 0.0
22/04:30pm 16.0 12.2 7.7 58 4.3 N 17 22 9 12 1017.2 - 0.0
22/04:00pm 16.4 12.1 7.9 57 4.4 N 20 26 11 14 1017.2 - 0.0
22/03:30pm 17.1 12.5 8.0 55 4.8 NNW 22 32 12 17 1017.2 - 0.0
22/03:00pm 18.6 13.1 9.1 54 5.1 NNW 28 33 15 18 1017.1 1016.4 0.0
22/02:30pm 19.9 14.6 10.0 53 5.5 NW 28 32 15 17 1016.8 - 0.0
22/02:00pm 19.6 15.1 8.6 49 5.9 NNW 22 30 12 16 1016.8 - 0.0
22/01:30pm 19.5 15.6 7.3 45 6.4 NNW 17 30 9 16 1016.8 - 0.0
22/01:00pm 19.1 15.2 7.2 46 6.2 NNW 17 22 9 12 1017.1 - 0.0
22/12:30pm 18.8 15.6 8.5 51 5.5 NNW 15 22 8 12 1017.8 - 0.0
22/12:00pm 18.0 14.7 9.6 58 4.5 NW 17 24 9 13 1018.3 1017.6 0.0
22/11:30am 17.2 14.8 10.1 63 3.9 NNW 13 20 7 11 1018.9 - 0.0
22/11:00am 16.2 15.4 10.9 71 2.9 NNW 6 13 3 7 1019.3 - 0.0
22/10:30am 13.8 13.4 9.6 76 2.2 N 2 7 1 4 1019.6 - 0.0
22/10:00am 12.7 12.3 9.9 83 1.5 N 2 9 1 5 1019.9 - 0.0
22/09:30am 10.2 10.0 9.0 92 0.6 CALM 0 0 0 0 1020.2 - 0.0
22/09:00am 8.7 7.1 8.6 99 0.0 N 7 9 4 5 1020.4 1019.8 0.0
22/08:51am 8.5 6.4 8.4 99 0.0 N 9 11 5 6 1020.4 - 0.0
22/08:30am 8.1 7.3 8.0 99 0.0 N 2 7 1 4 1020.2 - 0.0
22/08:00am 6.9 4.5 6.8 99 0.0 N 9 11 5 6 1020.3 - 0.0
22/07:30am 5.8 4.8 5.7 99 0.0 CALM 0 0 0 0 1020.3 - 0.0
22/07:00am 4.5 2.5 4.4 99 0.0 NW 4 7 2 4 1020.0 - 0.0
22/06:30am 4.1 2.8 4.0 99 0.0 CALM 0 0 0 0 1019.9 - 0.0
22/06:15am 4.8 3.6 4.7 99 0.0 CALM 0 4 0 2 1019.9 - 0.0
22/06:00am 4.8 2.3 4.7 99 0.0 S 7 7 4 4 1020.0 1019.3 0.0
22/05:30am 4.8 3.6 4.7 99 0.0 CALM 0 0 0 0 1020.2 - 0.0
22/05:00am 5.3 4.2 5.2 99 0.0 CALM 0 - 0 - 1020.0 - 0.0
22/04:44am 5.2 4.1 5.1 99 0.0 CALM 0 0 0 0 1019.9 - 0.0
22/04:30am 4.7 3.5 4.6 99 0.0 CALM 0 0 0 0 1020.0 - 0.0
22/04:26am 4.7 3.5 4.6 99 0.0 CALM 0 0 0 0 1020.0 - 0.0
22/04:00am 5.0 3.9 4.9 99 0.0 CALM 0 0 0 0 1019.9 - 0.0
22/03:30am 4.9 3.7 4.8 99 0.0 CALM 0 0 0 0 1019.9 - 0.0
22/03:25am 5.0 3.9 4.9 99 0.0 CALM 0 0 0 0 1019.9 - 0.0
22/03:00am 5.4 4.3 5.3 99 0.0 CALM 0 0 0 0 1019.8 1019.1 0.0
22/02:53am 5.1 4.0 5.0 99 0.0 CALM 0 0 0 0 1019.9 - 0.0
22/02:30am 4.7 3.5 4.4 98 0.1 CALM 0 0 0 0 1020.2 - 0.0
22/02:15am 5.1 3.9 4.8 98 0.1 CALM 0 0 0 0 1020.3 - 0.0
22/02:04am 5.0 3.8 4.7 98 0.1 CALM 0 0 0 0 1020.3 - 0.0
22/02:00am 5.1 3.9 4.8 98 0.1 CALM 0 0 0 0 1020.3 - 0.0
22/01:35am 5.5 4.4 5.2 98 0.1 CALM 0 0 0 0 1020.4 - 0.0
22/01:34am 5.5 4.4 5.2 98 0.1 CALM 0 0 0 0 1020.4 - 0.0
22/01:30am 5.6 4.6 5.5 99 0.0 CALM 0 0 0 0 1020.5 - 0.0
22/01:29am 5.5 4.4 5.2 98 0.1 CALM 0 0 0 0 1020.5 - 0.0
22/01:24am 5.8 4.8 5.7 99 0.0 CALM 0 0 0 0 1020.5 - 0.0
22/01:21am 5.7 4.7 5.4 98 0.1 CALM 0 0 0 0 1020.6 - 0.0
22/01:13am 4.8 3.6 4.4 97 0.2 CALM 0 0 0 0 1020.6 - 0.0
22/01:06am 5.3 4.2 5.0 98 0.1 CALM 0 0 0 0 1020.7 - 0.0
22/01:00am 6.2 5.3 6.1 99 0.0 CALM 0 0 0 0 1020.7 - 0.0
22/12:57am 6.4 5.6 6.3 99 0.0 CALM 0 0 0 0 1020.7 - 0.0
22/12:38am 6.4 5.6 6.3 99 0.0 CALM 0 0 0 0 1020.7 - 0.0
22/12:30am 6.0 5.1 5.9 99 0.0 CALM 0 0 0 0 1020.7 - 0.0
22/12:25am 6.1 5.2 6.0 99 0.0 CALM 0 0 0 0 1020.7 - 0.0
22/12:12am 6.1 5.1 5.8 98 0.1 CALM 0 0 0 0 1020.9 - 0.0
22/12:10am 6.3 5.4 6.0 98 0.1 CALM 0 0 0 0 1020.9 - 0.0
22/12:09am 6.4 5.5 6.1 98 0.1 CALM 0 0 0 0 1020.9 - 0.0
22/12:00am 5.7 4.6 5.0 95 0.3 CALM 0 0 0 0 1020.9 1020.3 0.0
 
Date/Time
EST
Tmp

°C
App
Tmp
°C
Dew
Point
°C
Rel
Hum
%
Delta-T

°C
Wind Press
QNH
hPa
Press
MSL
hPa
Rain
since
9 am
mm
Dir
 
Spd
km/h
Gust
km/h
Spd
kts
Gust
kts
21/11:59pm 5.8 4.7 5.1 95 0.3 CALM 0 0 0 0 1020.9 - 0.0
21/11:30pm 7.1 6.3 6.5 96 0.3 CALM 0 0 0 0 1020.9 - 0.0
21/11:00pm 7.0 6.2 6.4 96 0.3 CALM 0 0 0 0 1021.2 - 0.0
21/10:59pm 7.1 6.3 6.7 97 0.2 CALM 0 0 0 0 1021.2 - 0.0

Latest Capital City Observations: Canberra | Sydney | Melbourne | Brisbane | Adelaide | Perth | Hobart | Darwin

Other Formats:

Comma delimited format used in spreadsheet applications
http://www.bom.gov.au/fwo/IDN60903/IDN60903.94926.axf

JavaScript Object Notation format (JSON) in row-major order
http://www.bom.gov.au/fwo/IDN60903/IDN60903.94926.json